GW2923 Weather Reports


Display with metric or nautical units.
time (UTC)temp
F
wind
direction
speed
MPH
gust
MPH
rain 1hr
in
rain 24hr
in
rain mn
in
humidity
%
barometer
mb
20260505171031 43 257 8.0 17.0 0.00 0.03 0.01 51 1004.6
20260505170530 44 243 10.0 17.0 0.00 0.03 0.01 51 1004.6
20260505170050 44 264 9.0 15.0 0.00 0.03 0.01 51 1004.5
20260505165531 44 241 7.0 15.0 0.00 0.03 0.01 51 1004.5
20260505165033 44 255 6.0 15.0 0.00 0.03 0.01 51 1004.5
20260505164543 44 261 9.0 15.0 0.00 0.03 0.01 50 1004.4
20260505164030 44 250 9.0 16.0 0.00 0.03 0.01 50 1004.4
20260505163533 45 242 8.0 16.0 0.00 0.03 0.01 49 1004.3
20260505163044 45 263 7.0 17.0 0.00 0.03 0.01 50 1004.4
20260505162529 45 241 9.0 17.0 0.00 0.03 0.01 50 1004.3
20260505162030 46 261 9.0 17.0 0.00 0.03 0.01 48 1004.2
20260505161543 46 249 9.0 17.0 0.00 0.03 0.01 49 1004.2
20260505161032 46 273 7.0 16.0 0.00 0.03 0.01 48 1004.2
20260505160533 46 263 8.0 16.0 0.00 0.03 0.01 48 1004.2
20260505153053 46 274 12.0 17.0 0.00 0.03 0.01 44 1004.0
20260505152529 46 268 11.0 17.0 0.00 0.03 0.01 44 1003.9
20260505152030 47 291 9.0 20.0 0.00 0.03 0.01 44 1004.0
20260505151546 47 276 10.0 20.0 0.00 0.03 0.01 44 1003.9
20260505151029 47 280 11.0 20.0 0.00 0.03 0.01 44 1003.9
20260505150529 47 261 10.0 20.0 0.00 0.03 0.01 45 1003.8
20260505140530 47 292 12.0 23.0 0.00 0.03 0.01 42 1003.3
20260505125033 48 270 10.0 18.0 0.00 0.03 0.01 43 1002.9
20260505124550 48 274 9.0 24.0 0.00 0.03 0.01 43 1002.9
20260505124032 47 268 13.0 24.0 0.00 0.03 0.01 40 1002.9
20260505123532 47 269 12.0 24.0 0.00 0.03 0.01 42 1002.8
20260505123058 47 271 13.0 24.0 0.00 0.03 0.01 42 1002.7
20260505122533 47 274 11.0 23.0 0.00 0.03 0.01 44 1002.6
20260505122033 47 277 14.0 23.0 0.00 0.03 0.01 44 1002.6
20260505121546 47 276 13.0 20.0 0.00 0.03 0.01 44 1002.6
20260505121033 47 301 10.0 21.0 0.00 0.03 0.01 42 1002.4
20260505120534 46 273 11.0 21.0 0.00 0.03 0.01 45 1002.4
20260505120046 47 327 10.0 21.0 0.00 0.03 0.01 42 1002.4
20260505115534 47 281 13.0 21.0 0.00 0.03 0.01 43 1002.3
20260505115034 47 253 12.0 24.0 0.00 0.03 0.01 45 1002.3
20260505114553 47 263 14.0 24.0 0.00 0.03 0.01 43 1002.3
20260505114034 46 263 9.0 23.0 0.00 0.03 0.01 47 1002.1
20260505113536 47 281 9.0 23.0 0.00 0.03 0.01 44 1002.1
20260505113045 47 262 11.0 23.0 0.00 0.03 0.01 40 1002.3
20260505112535 46 275 13.0 20.0 0.00 0.03 0.01 49 1001.9
20260505112035 46 300 8.0 21.0 0.00 0.03 0.01 46 1001.9
20260505111558 47 295 9.0 21.0 0.00 0.03 0.01 49 1001.9
20260505111033 46 257 12.0 21.0 0.00 0.03 0.01 46 1001.8
20260505110533 47 336 10.0 21.0 0.00 0.03 0.01 47 1001.8
20260505102035 45 286 13.0 22.0 0.00 0.03 0.01 53 1001.3
20260505101545 45 271 8.0 21.0 0.00 0.03 0.01 54 1001.4
20260505101034 46 270 10.0 21.0 0.00 0.03 0.01 55 1001.3
20260505100530 44 253 7.0 21.0 0.00 0.03 0.01 57 1001.1
20260505100043 45 276 12.0 21.0 0.00 0.03 0.01 57 1001.2
20260505095535 45 266 9.0 18.0 0.00 0.03 0.01 59 1001.1
20260505095029 44 282 9.0 18.0 0.00 0.03 0.01 55 1001.1
20260505094545 46 276 11.0 21.0 0.00 0.03 0.01 57 1001.0
20260505094031 47 285 13.0 24.0 0.00 0.03 0.01 58 1000.9
20260505093529 45 253 14.0 24.0 0.00 0.03 0.01 58 1000.9
20260505093040 44 282 15.0 23.0 0.00 0.03 0.01 58 1000.9
20260505092530 45 282 10.0 19.0 0.00 0.03 0.01 57 1000.8
20260505092034 45 248 12.0 19.0 0.00 0.03 0.01 60 1000.8
20260505091542 43 284 13.0 19.0 0.00 0.03 0.01 62 1000.7
20260505091029 43 255 11.0 20.0 0.00 0.03 0.01 62 1000.8
20260505090530 43 278 13.0 25.0 0.00 0.03 0.01 60 1000.6
20260505090050 43 280 12.0 25.0 0.00 0.03 0.01 62 1000.6
20260505085530 43 260 12.0 25.0 0.00 0.03 0.01 60 1000.6
20260505085030 43 266 13.0 20.0 0.00 0.03 0.01 61 1000.6
20260505084538 42 272 13.0 20.0 0.00 0.03 0.01 62 1000.6
20260505084029 43 247 14.0 20.0 0.00 0.03 0.01 60 1000.5
20260505083529 42 306 12.0 19.0 0.00 0.03 0.01 66 1000.4
20260505083046 42 272 12.0 19.0 0.00 0.03 0.01 63 1000.4
20260505082533 44 266 10.0 22.0 0.00 0.03 0.01 62 1000.3
20260505082031 44 272 10.0 22.0 0.00 0.03 0.01 64 1000.2
20260505081548 43 258 11.0 20.0 0.00 0.03 0.01 62 1000.2
20260505081030 42 267 11.0 23.0 0.00 0.03 0.01 68 1000.1
20260505080529 41 269 14.0 24.0 0.00 0.03 0.01 62 1000.1
20260505080042 42 261 12.0 24.0 0.00 0.03 0.01 66 1000.0
20260505075529 42 274 14.0 24.0 0.00 0.03 0.01 64 999.9
20260505075032 42 266 12.0 24.0 0.00 0.03 0.01 65 999.9
20260505074543 42 273 14.0 24.0 0.00 0.03 0.01 63 999.8
20260505074030 41 324 14.0 22.0 0.00 0.03 0.01 65 999.8
20260505073530 41 268 12.0 23.0 0.00 0.03 0.01 67 999.9
20260505073040 41 268 14.0 23.0 0.00 0.03 0.01 68 999.8
20260505072532 42 290 14.0 23.0 0.00 0.03 0.01 66 999.7
20260505072032 42 259 14.0 21.0 0.00 0.03 0.01 70 999.7
20260505071544 41 277 10.0 18.0 0.00 0.03 0.01 73 999.6
20260505071033 43 276 10.0 17.0 0.00 0.03 0.01 68 999.5
20260505070534 42 268 10.0 17.0 0.00 0.03 0.01 74 999.4
20260505070050 42 259 12.0 17.0 0.00 0.03 0.01 73 999.4
20260505065530 41 271 10.0 16.0 0.00 0.03 0.01 79 999.4
20260505065029 41 261 8.0 15.0 0.00 0.03 0.01 79 999.3
20260505064555 41 252 9.0 16.0 0.00 0.03 0.01 80 999.2
20260505064029 41 255 9.0 18.0 0.00 0.03 0.01 82 999.3
20260505063529 40 237 9.0 18.0 0.00 0.03 0.01 82 999.2
20260505063046 40 248 7.0 18.0 0.00 0.03 0.01 83 999.3
20260505062530 40 245 11.0 18.0 0.00 0.03 0.01 83 999.2
20260505062030 40 240 9.0 16.0 0.00 0.03 0.01 84 999.2
20260505061550 39 253 8.0 15.0 0.00 0.03 0.01 86 999.2
20260505061034 39 257 10.0 15.0 0.00 0.03 0.01 87 999.2
20260505060534 38 240 7.0 14.0 0.00 0.03 0.01 88 999.2
20260505060046 38 221 5.0 14.0 0.00 0.03 0.01 91 999.2
20260505055533 37 252 7.0 14.0 0.00 0.03 0.01 90 999.1
20260505055033 37 251 8.0 15.0 0.00 0.03 0.01 89 999.2
20260505054553 37 259 8.0 15.0 0.00 0.03 0.01 89 999.2
20260505054033 37 238 7.0 13.0 0.00 0.03 0.01 90 999.2
20260505053529 37 240 6.0 15.0 0.00 0.03 0.01 90 999.1
20260505053042 37 260 7.0 15.0 0.00 0.03 0.01 90 999.1
20260505052533 37 268 6.0 13.0 0.00 0.03 0.01 90 999.2
20260505052029 37 262 4.0 14.0 0.00 0.03 0.01 91 999.1
20260505051538 37 254 8.0 14.0 0.00 0.03 0.01 90 999.2
20260505051029 37 259 6.0 12.0 0.00 0.03 0.01 91 999.2
20260505050533 37 261 6.0 11.0 0.00 0.03 0.01 91 999.1
20260505041548 35 247 5.0 16.0 0.00 0.03 0.01 92 999.0
20260505041029 35 225 6.0 11.0 0.00 0.03 0.01 92 999.0
20260505040529 35 257 5.0 10.0 0.00 0.03 0.01 92 999.1
20260505040039 35 245 4.0 10.0 0.00 0.03 0.01 91 999.1
20260505035529 35 259 4.0 9.0 0.00 0.03 0.01 91 999.1
20260505035032 35 235 5.0 9.0 0.00 0.03 0.01 91 999.0
20260505034545 35 253 4.0 10.0 0.00 0.03 0.01 91 998.9
20260505034035 35 245 6.0 10.0 0.00 0.03 0.01 91 998.9
20260505033533 35 232 4.0 9.0 0.00 0.03 0.01 91 998.9
20260505033046 35 234 4.0 10.0 0.00 0.03 0.01 91 998.9
20260505032534 35 234 6.0 11.0 0.00 0.03 0.01 91 999.0
20260505032033 35 234 6.0 12.0 0.00 0.03 0.01 91 999.1
20260505031538 35 226 6.0 12.0 0.00 0.03 0.01 91 999.0
20260505031034 35 232 6.0 11.0 0.00 0.03 0.01 91 999.1
20260505030534 35 228 6.0 12.0 0.00 0.03 0.01 91 999.0
20260505030040 35 224 7.0 12.0 0.00 0.03 0.01 91 999.0
20260505025534 35 210 6.0 12.0 0.00 0.03 0.01 91 999.0
20260505025034 35 201 6.0 14.0 0.00 0.03 0.01 91 999.1
20260505024547 35 211 7.0 14.0 0.00 0.03 0.01 91 999.1
20260505024034 35 206 7.0 13.0 0.00 0.03 0.01 91 999.2
20260505023534 35 199 8.0 14.0 0.00 0.03 0.01 91 999.1
20260505023047 35 217 7.0 14.0 0.01 0.03 0.01 91 999.1
20260505022534 35 187 7.0 13.0 0.01 0.03 0.01 91 999.0
20260505022034 35 213 8.0 13.0 0.01 0.03 0.01 91 999.0
20260505021545 35 188 8.0 13.0 0.01 0.03 0.01 90 999.0
20260505021033 35 186 7.0 13.0 0.01 0.03 0.01 90 999.1
20260505020533 35 208 8.0 12.0 0.01 0.03 0.01 90 999.2
20260505020046 35 208 8.0 12.0 0.01 0.03 0.01 89 999.3
20260505015534 36 236 6.0 11.0 0.01 0.03 0.01 89 999.4
20260505015034 36 226 6.0 13.0 0.01 0.03 0.01 89 999.4
20260505014546 36 241 7.0 13.0 0.00 0.02 0.00 88 999.4
20260505014036 36 215 7.0 12.0 0.00 0.02 0.00 88 999.4
20260505013534 36 241 7.0 13.0 0.00 0.02 0.00 88 999.4
20260505013045 36 217 7.0 13.0 0.00 0.01 0.00 88 999.3
20260505012534 37 238 9.0 18.0 0.00 0.01 0.00 88 999.4
20260505012034 37 222 10.0 18.0 0.00 0.01 0.00 89 999.3
20260505011543 36 219 6.0 11.0 0.00 0.01 0.00 89 999.3
20260505011033 36 186 7.0 11.0 0.00 0.01 0.00 90 999.2
20260505010535 36 205 8.0 11.0 0.00 0.01 0.00 91 999.2
20260505010045 36 199 8.0 11.0 0.00 0.01 0.00 92 999.3
20260505005534 36 195 6.0 8.0 0.00 0.01 0.00 93 999.2
20260505005034 36 209 5.0 8.0 0.00 0.01 0.00 93 999.4
20260505004548 36 248 4.0 8.0 0.00 0.01 0.00 93 999.5
20260505004034 36 228 3.0 8.0 0.00 0.01 0.00 93 999.2
20260505003533 36 255 3.0 10.0 0.00 0.01 0.00 93 999.2
20260505003047 36 232 6.0 10.0 0.00 0.01 0.00 93 999.1
20260505002533 36 233 6.0 10.0 0.00 0.01 0.00 93 999.1
20260505002034 36 214 5.0 10.0 0.00 0.01 0.00 93 998.9
20260505001550 36 249 5.0 10.0 0.00 0.01 0.00 93 998.9
20260505001029 36 238 6.0 11.0 0.00 0.01 0.00 93 998.9
20260505000533 36 251 5.0 12.0 0.00 0.01 0.00 93 998.7
20260505000052 36 234 7.0 12.0 0.00 0.01 0.00 93 998.7
20260504235534 36 224 5.0 10.0 0.00 0.01 0.00 93 998.9
20260504235034 36 223 5.0 10.0 0.00 0.01 0.00 93 998.9
20260504234557 36 216 4.0 8.0 0.00 0.01 0.00 93 998.6
20260504234033 35 253 3.0 9.0 0.00 0.01 0.00 93 998.7
20260504233533 36 205 4.0 9.0 0.00 0.01 0.00 93 998.7
20260504233049 36 210 4.0 9.0 0.00 0.01 0.00 93 999.0
20260504232533 36 240 3.0 7.0 0.00 0.01 0.00 93 999.0
20260504232031 36 259 3.0 8.0 0.00 0.01 0.00 92 998.9
20260504231557 36 249 5.0 8.0 0.00 0.01 0.00 92 998.8
20260504231033 36 234 3.0 8.0 0.00 0.01 0.00 92 998.8
20260504230530 36 237 4.0 8.0 0.00 0.01 0.00 92 998.7
20260504230046 36 241 2.0 7.0 0.00 0.01 0.00 92 998.6
20260504225533 36 264 3.0 8.0 0.00 0.01 0.00 92 998.8
20260504225033 36 265 4.0 8.0 0.00 0.01 0.00 92 998.9
20260504224543 36 215 4.0 7.0 0.00 0.01 0.00 92 999.0
20260504224033 36 249 3.0 9.0 0.00 0.01 0.00 92 999.1
20260504223536 36 239 4.0 10.0 0.00 0.01 0.00 92 999.3
20260504223042 36 224 4.0 10.0 0.00 0.01 0.00 91 999.3
20260504222530 36 195 6.0 10.0 0.00 0.01 0.00 91 999.4
20260504222037 36 240 3.0 8.0 0.00 0.01 0.00 91 999.5
20260504221545 36 227 3.0 7.0 0.00 0.01 0.00 91 999.3
20260504221029 36 244 5.0 7.0 0.00 0.01 0.00 91 999.3
20260504220534 36 213 4.0 6.0 0.00 0.01 0.00 90 999.3
20260504220039 37 221 3.0 6.0 0.00 0.01 0.00 90 999.1
20260504215534 37 219 3.0 6.0 0.00 0.01 0.00 90 999.1
20260504215036 37 214 3.0 6.0 0.00 0.01 0.00 90 999.1
20260504214545 37 220 4.0 7.0 0.00 0.01 0.00 90 999.1
20260504214033 37 219 5.0 8.0 0.00 0.01 0.00 90 999.1
20260504213530 37 217 4.0 8.0 0.00 0.01 0.00 90 999.2
20260504213044 37 214 4.0 8.0 0.00 0.01 0.00 90 999.1
20260504212532 37 230 4.0 8.0 0.00 0.01 0.00 89 999.1
20260504212033 38 220 5.0 8.0 0.00 0.01 0.00 89 999.1
20260504211552 38 246 4.0 9.0 0.00 0.01 0.00 89 999.2
20260504211038 39 218 4.0 12.0 0.00 0.01 0.00 89 999.3
20260504210538 39 254 5.0 12.0 0.00 0.01 0.00 90 999.3
20260504210107 39 253 4.0 10.0 0.00 0.01 0.00 90 999.3
20260504205539 39 271 6.0 10.0 0.00 0.01 0.01 90 999.1
20260504205041 39 257 6.0 11.0 0.00 0.01 0.01 90 999.2
20260504204600 39 251 5.0 11.0 0.00 0.01 0.01 90 999.2
20260504204038 39 266 4.0 10.0 0.00 0.01 0.01 90 999.1
20260504203538 39 260 6.0 10.0 0.00 0.01 0.01 90 999.1
20260504203053 40 256 3.0 10.0 0.00 0.01 0.01 89 999.0
20260504202538 40 243 5.0 10.0 0.00 0.01 0.01 89 999.0
20260504202038 40 295 5.0 11.0 0.00 0.01 0.01 89 999.0
20260504201550 40 264 8.0 11.0 0.00 0.01 0.01 89 998.8
20260504201038 40 263 7.0 10.0 0.00 0.01 0.01 90 998.7
20260504200539 40 260 5.0 10.0 0.00 0.01 0.01 90 998.7
20260504200051 40 263 5.0 10.0 0.00 0.01 0.01 90 998.8
20260504195538 40 275 6.0 10.0 0.00 0.01 0.01 90 998.7
20260504195038 40 255 5.0 12.0 0.00 0.01 0.01 90 998.9
20260504194605 40 234 5.0 13.0 0.00 0.01 0.01 90 998.8
20260504194038 40 268 9.0 13.0 0.00 0.01 0.01 90 998.7
20260504193538 40 254 6.0 15.0 0.00 0.01 0.01 90 998.6
20260504193058 41 238 6.0 15.0 0.00 0.01 0.01 90 998.6
20260504192538 41 245 8.0 15.0 0.00 0.01 0.01 90 998.6
20260504192038 41 272 6.0 13.0 0.00 0.01 0.01 90 998.5
20260504191550 41 217 5.0 14.0 0.00 0.01 0.01 90 998.6
20260504191038 41 261 6.0 16.0 0.00 0.01 0.01 90 998.8
20260504190538 41 256 7.0 16.0 0.00 0.01 0.01 90 998.9
20260504190117 41 255 8.0 15.0 0.00 0.01 0.01 90 998.9
20260504185537 41 238 9.0 15.0 0.00 0.01 0.01 89 998.9
20260504185038 41 258 8.0 15.0 0.00 0.01 0.01 89 998.8
20260504184557 41 253 8.0 15.0 0.01 0.01 0.01 89 998.7
20260504184038 41 274 5.0 9.0 0.01 0.01 0.01 89 998.6
20260504183538 41 229 3.0 14.0 0.01 0.01 0.01 89 998.6
20260504183053 42 241 4.0 14.0 0.01 0.01 0.01 89 998.6
20260504182538 42 248 6.0 13.0 0.01 0.01 0.01 89 998.7
20260504182038 42 228 5.0 10.0 0.01 0.01 0.01 88 998.6
20260504181545 42 263 5.0 11.0 0.01 0.01 0.01 88 998.7
20260504181030 42 243 4.0 11.0 0.01 0.01 0.01 87 998.6
20260504180534 42 247 5.0 10.0 0.01 0.01 0.01 87 998.6
20260504180138 42 241 5.0 10.0 0.01 0.01 0.01 86 998.4
20260504175534 42 222 5.0 11.0 0.01 0.01 0.01 85 998.2
20260504175036 43 217 7.0 16.0 0.00 0.00 0.00 84 998.5
20260504174545 43 213 9.0 16.0 0.00 0.00 0.00 82 998.6
20260504174036 43 202 10.0 15.0 0.00 0.00 0.00 81 998.6
20260504173533 43 195 9.0 15.0 0.00 0.00 0.00 80 998.4
20260504173053 43 224 9.0 14.0 0.00 0.00 0.00 81 998.5
20260504172612 43 241 7.0 15.0 0.00 0.00 0.00 80 998.6
20260504172534 43 241 7.0 15.0 0.00 0.00 0.00 80 998.6
20260504172029 43 226 7.0 15.0 0.00 0.00 0.00 80 998.6
20260504171540 43 247 8.0 14.0 0.00 0.00 0.00 80 998.6